DLH98T LICC-EDDF

Flight info

Callsign DLH98T
Flight time 2h 14m
Altitude 38000
Route BUDIN DCT DIRED DCT GIKEB DCT BRENO DCT KONIN DCT ERNAS T161 DEBHI DEBHI1B
Aircraft A20N/M-SDE2E3FGHIRWXY/LB1

Departure

Time 2026-05-05 15:26
Airport Catania-Fontanarossa Airport (LICC)

Arrival

Time 2026-05-05 17:40
Airport Frankfurt Main Airport (EDDF)
Time Latitude Longitude Altitude Speed Heading
2026-05-05 15:14 37.46969 15.06475 32 ft 0 kts 19°
2026-05-05 15:19 37.46950 15.06467 32 ft 3 kts 19°
2026-05-05 15:19 37.46929 15.06458 29 ft 3 kts 19°
2026-05-05 15:19 37.46907 15.06449 30 ft 4 kts 17°
2026-05-05 15:20 37.46880 15.06439 32 ft 4 kts 13°
2026-05-05 15:20 37.46851 15.06434 31 ft 4 kts 360°
2026-05-05 15:20 37.46821 15.06440 32 ft 4 kts 322°
2026-05-05 15:20 37.46825 15.06425 31 ft 3 kts 287°
2026-05-05 15:21 37.46825 15.06412 31 ft 0 kts 263°
2026-05-05 15:22 37.46824 15.06407 34 ft 1 kts 263°
2026-05-05 15:23 37.46822 15.06390 34 ft 3 kts 262°
2026-05-05 15:23 37.46818 15.06342 35 ft 8 kts 263°
2026-05-05 15:23 37.46811 15.06233 38 ft 16 kts 264°
2026-05-05 15:23 37.46796 15.06059 40 ft 24 kts 264°
2026-05-05 15:24 37.46775 15.05820 43 ft 30 kts 264°
2026-05-05 15:24 37.46751 15.05536 45 ft 34 kts 263°
2026-05-05 15:24 37.46713 15.05304 44 ft 24 kts 226°
2026-05-05 15:24 37.46577 15.05200 47 ft 4 kts 167°
2026-05-05 15:25 37.46563 15.05214 46 ft 8 kts 129°
2026-05-05 15:25 37.46571 15.05331 45 ft 30 kts 82°
2026-05-05 15:25 37.46621 15.05941 41 ft 106 kts 84°
2026-05-05 15:25 37.46725 15.07129 90 ft 159 kts 83°
2026-05-05 15:26 37.46827 15.08460 1001 ft 150 kts 84°
2026-05-05 15:26 37.46922 15.09776 1817 ft 152 kts 83°
2026-05-05 15:26 37.47115 15.11136 2393 ft 167 kts 79°
2026-05-05 15:26 37.47367 15.12653 2857 ft 187 kts 78°
2026-05-05 15:27 37.47639 15.14358 3281 ft 209 kts 79°
2026-05-05 15:27 37.47918 15.16252 3711 ft 231 kts 79°
2026-05-05 15:27 37.48210 15.18339 4149 ft 252 kts 80°
2026-05-05 15:27 37.48507 15.20523 4943 ft 258 kts 80°
2026-05-05 15:28 37.48810 15.22777 5684 ft 264 kts 79°
2026-05-05 15:28 37.49117 15.25059 6636 ft 265 kts 79°
2026-05-05 15:28 37.49467 15.27364 7400 ft 272 kts 71°
2026-05-05 15:28 37.50420 15.29424 8138 ft 276 kts 43°
2026-05-05 15:29 37.51976 15.30869 8876 ft 283 kts 30°
2026-05-05 15:29 37.53693 15.32189 9537 ft 293 kts 29°
2026-05-05 15:29 37.55457 15.33521 10320 ft 300 kts 29°
2026-05-05 15:29 37.57309 15.34930 10656 ft 322 kts 29°
2026-05-05 15:30 37.59288 15.36456 10914 ft 345 kts 30°
2026-05-05 15:30 37.61355 15.38070 11538 ft 352 kts 30°
2026-05-05 15:30 37.63449 15.39715 12286 ft 357 kts 29°
2026-05-05 15:30 37.65572 15.41387 13041 ft 361 kts 29°
2026-05-05 15:31 37.67722 15.43079 13769 ft 366 kts 29°
2026-05-05 15:31 37.69925 15.44625 14412 ft 367 kts 18°
2026-05-05 15:31 37.72428 15.45281 15078 ft 363 kts 358°
2026-05-05 15:31 37.74873 15.44852 15716 ft 359 kts 338°
2026-05-05 15:32 37.77215 15.43729 16366 ft 361 kts 335°
2026-05-05 15:32 37.79550 15.42509 17017 ft 365 kts 334°
2026-05-05 15:32 37.81910 15.41272 17664 ft 369 kts 334°
2026-05-05 15:32 37.84299 15.40040 18301 ft 373 kts 335°
2026-05-05 15:33 37.86718 15.38812 18866 ft 376 kts 335°
2026-05-05 15:33 37.89156 15.37584 19428 ft 379 kts 335°
2026-05-05 15:33 37.91621 15.36347 19972 ft 382 kts 335°
2026-05-05 15:33 37.94107 15.35100 20516 ft 386 kts 335°
2026-05-05 15:34 37.96613 15.33842 21058 ft 389 kts 335°
2026-05-05 15:34 37.99148 15.32570 21597 ft 392 kts 335°
2026-05-05 15:34 38.01698 15.31288 22131 ft 396 kts 335°
2026-05-05 15:34 38.04269 15.29993 22664 ft 399 kts 335°
2026-05-05 15:35 38.06830 15.28704 23189 ft 403 kts 335°
2026-05-05 15:35 38.09451 15.27383 23679 ft 407 kts 334°
2026-05-05 15:35 38.12089 15.26053 24094 ft 409 kts 335°
2026-05-05 15:35 38.14731 15.24720 24617 ft 409 kts 334°
2026-05-05 15:36 38.17383 15.23381 25082 ft 411 kts 334°
2026-05-05 15:36 38.20052 15.22032 25554 ft 412 kts 334°
2026-05-05 15:36 38.22727 15.20678 25996 ft 414 kts 334°
2026-05-05 15:36 38.25403 15.19321 26428 ft 415 kts 334°
2026-05-05 15:37 38.28099 15.17954 26842 ft 417 kts 334°
2026-05-05 15:37 38.30765 15.16602 27256 ft 419 kts 334°
2026-05-05 15:37 38.33480 15.15223 27660 ft 420 kts 334°
2026-05-05 15:37 38.36200 15.13841 28037 ft 422 kts 334°
2026-05-05 15:38 38.38933 15.12451 28419 ft 424 kts 334°
2026-05-05 15:38 38.41673 15.11057 28785 ft 425 kts 334°
2026-05-05 15:38 38.44426 15.09654 29136 ft 427 kts 334°
2026-05-05 15:38 38.47194 15.08244 29480 ft 428 kts 334°
2026-05-05 15:39 38.49966 15.06829 29802 ft 430 kts 334°
2026-05-05 15:39 38.52747 15.05408 30127 ft 432 kts 334°
2026-05-05 15:39 38.55539 15.03981 30437 ft 433 kts 334°
2026-05-05 15:39 38.58342 15.02547 30736 ft 434 kts 334°
2026-05-05 15:40 38.61149 15.01111 31051 ft 435 kts 334°
2026-05-05 15:40 38.63010 15.00157 31267 ft 435 kts 334°
2026-05-05 15:40 38.65819 14.98718 31658 ft 434 kts 334°
2026-05-05 15:40 38.68613 14.97285 32067 ft 431 kts 334°
2026-05-05 15:41 38.72295 14.95395 32624 ft 428 kts 333°
2026-05-05 15:41 38.74160 14.94437 32890 ft 427 kts 333°
2026-05-05 15:41 38.76913 14.93020 33274 ft 425 kts 333°
2026-05-05 15:41 38.79650 14.91611 33652 ft 423 kts 333°
2026-05-05 15:42 38.82378 14.90205 34001 ft 422 kts 333°
2026-05-05 15:42 38.85094 14.88803 34305 ft 420 kts 333°
2026-05-05 15:42 38.87809 14.87401 34531 ft 421 kts 333°
2026-05-05 15:42 38.90487 14.86017 34754 ft 421 kts 333°
2026-05-05 15:43 38.93202 14.84612 34979 ft 421 kts 333°
2026-05-05 15:43 38.95913 14.83209 35200 ft 420 kts 333°
2026-05-05 15:43 38.98628 14.81803 35429 ft 420 kts 333°
2026-05-05 15:43 39.01341 14.80397 35636 ft 420 kts 333°
2026-05-05 15:44 39.04051 14.78991 35832 ft 420 kts 333°
2026-05-05 15:44 39.06758 14.77586 36046 ft 420 kts 333°
2026-05-05 15:44 39.09465 14.76179 36251 ft 419 kts 333°
2026-05-05 15:44 39.12170 14.74773 36458 ft 419 kts 333°
2026-05-05 15:45 39.14867 14.73369 36655 ft 418 kts 333°
2026-05-05 15:45 39.17565 14.71964 36857 ft 418 kts 333°
2026-05-05 15:45 39.20253 14.70562 37056 ft 417 kts 333°
2026-05-05 15:45 39.22943 14.69159 37247 ft 416 kts 333°
2026-05-05 15:46 39.25628 14.67757 37439 ft 415 kts 333°
2026-05-05 15:46 39.28303 14.66359 37617 ft 415 kts 333°
2026-05-05 15:46 39.30978 14.64959 37799 ft 414 kts 333°
2026-05-05 15:46 39.33643 14.63564 37974 ft 413 kts 333°
2026-05-05 15:47 39.36275 14.62185 38068 ft 413 kts 333°
2026-05-05 15:47 39.41577 14.59404 38075 ft 410 kts 333°
2026-05-05 15:48 39.46862 14.56626 38069 ft 410 kts 333°
2026-05-05 15:48 39.52136 14.53850 38072 ft 408 kts 333°
2026-05-05 15:49 39.57452 14.51179 38068 ft 412 kts 337°
2026-05-05 15:49 39.62955 14.49033 38073 ft 413 kts 338°
2026-05-05 15:50 39.68465 14.46859 38080 ft 414 kts 338°
2026-05-05 15:50 39.73960 14.44696 38069 ft 412 kts 338°
2026-05-05 15:51 39.79449 14.42534 38068 ft 412 kts 338°
2026-05-05 15:51 39.84912 14.40379 38068 ft 413 kts 337°
2026-05-05 15:52 39.90413 14.38206 38064 ft 413 kts 337°
2026-05-05 15:52 39.95919 14.36026 38068 ft 414 kts 337°
2026-05-05 15:53 40.01436 14.33838 38076 ft 414 kts 337°
2026-05-05 15:53 40.06963 14.31642 38070 ft 415 kts 337°
2026-05-05 15:54 40.12496 14.29439 38075 ft 416 kts 337°
2026-05-05 15:54 40.18003 14.27243 38075 ft 417 kts 337°
2026-05-05 15:55 40.23552 14.25027 38077 ft 417 kts 337°
2026-05-05 15:55 40.29114 14.22801 38079 ft 418 kts 337°
2026-05-05 15:56 40.34683 14.20569 38082 ft 419 kts 337°
2026-05-05 15:56 40.40255 14.18331 38083 ft 419 kts 337°
2026-05-05 15:57 40.45843 14.16084 38087 ft 419 kts 337°
2026-05-05 15:57 40.51424 14.13836 38084 ft 420 kts 337°
2026-05-05 15:58 40.57014 14.11579 38088 ft 420 kts 337°
2026-05-05 15:58 40.62610 14.09317 38091 ft 420 kts 337°
2026-05-05 15:59 40.68170 14.07066 38100 ft 421 kts 337°
2026-05-05 15:59 40.73772 14.04793 38099 ft 421 kts 337°
2026-05-05 16:00 40.79366 14.02519 38097 ft 421 kts 337°
2026-05-05 16:00 40.84960 14.00241 38101 ft 421 kts 336°
2026-05-05 16:01 40.90555 13.97960 38105 ft 421 kts 336°
2026-05-05 16:01 40.96143 13.95677 38109 ft 421 kts 336°
2026-05-05 16:02 41.01733 13.93389 38099 ft 420 kts 336°
2026-05-05 16:02 41.07325 13.91095 38089 ft 420 kts 336°
2026-05-05 16:03 41.12901 13.88805 38099 ft 419 kts 336°
2026-05-05 16:03 41.18449 13.86521 38094 ft 420 kts 336°
2026-05-05 16:04 41.24033 13.84220 38091 ft 420 kts 336°
2026-05-05 16:04 41.29617 13.81914 38080 ft 419 kts 336°
2026-05-05 16:05 41.35191 13.79607 38067 ft 419 kts 336°
2026-05-05 16:05 41.40736 13.77308 38068 ft 419 kts 336°
2026-05-05 16:06 41.46325 13.74988 38071 ft 419 kts 336°
2026-05-05 16:06 41.51903 13.72668 38074 ft 420 kts 336°
2026-05-05 16:07 41.57446 13.70358 38076 ft 421 kts 336°
2026-05-05 16:07 41.63043 13.68022 38087 ft 421 kts 336°
2026-05-05 16:08 41.68628 13.65688 38076 ft 420 kts 336°
2026-05-05 16:08 41.74210 13.63349 38072 ft 420 kts 336°
2026-05-05 16:09 41.79792 13.61004 38074 ft 421 kts 336°
2026-05-05 16:09 41.85380 13.58655 38064 ft 420 kts 336°
2026-05-05 16:10 41.90945 13.56312 38059 ft 418 kts 336°
2026-05-05 16:10 41.96497 13.53965 38039 ft 421 kts 336°
2026-05-05 16:11 42.02068 13.51611 38037 ft 419 kts 336°
2026-05-05 16:12 42.13212 13.46886 38033 ft 419 kts 336°
2026-05-05 16:13 42.27095 13.40974 38027 ft 419 kts 336°
2026-05-05 16:13 42.32609 13.38620 38030 ft 419 kts 336°
2026-05-05 16:14 42.43735 13.33855 38019 ft 418 kts 336°
2026-05-05 16:15 42.54803 13.29096 38004 ft 416 kts 336°
2026-05-05 16:16 42.65852 13.24327 38012 ft 419 kts 336°
2026-05-05 16:17 42.74210 13.20709 38011 ft 419 kts 336°
2026-05-05 16:18 42.82580 13.17074 38015 ft 422 kts 336°
2026-05-05 16:19 42.90910 13.13447 38013 ft 420 kts 336°
2026-05-05 16:19 42.99311 13.09778 37998 ft 423 kts 336°
2026-05-05 16:20 43.10513 13.04870 37995 ft 423 kts 336°
2026-05-05 16:22 43.24484 12.98722 37975 ft 421 kts 335°
2026-05-05 16:23 43.35598 12.93809 37967 ft 421 kts 336°
2026-05-05 16:23 43.43973 12.90096 37966 ft 422 kts 336°
2026-05-05 16:24 43.49571 12.87607 37971 ft 423 kts 336°
2026-05-05 16:25 43.57975 12.83863 37974 ft 424 kts 336°
2026-05-05 16:25 43.66386 12.80106 37973 ft 422 kts 336°
2026-05-05 16:26 43.77572 12.75088 37970 ft 425 kts 336°
2026-05-05 16:27 43.83200 12.72556 37970 ft 425 kts 336°
2026-05-05 16:27 43.88828 12.70020 37966 ft 426 kts 336°
2026-05-05 16:28 43.94468 12.67474 37966 ft 426 kts 336°
2026-05-05 16:28 44.00116 12.64918 37967 ft 427 kts 336°
2026-05-05 16:29 44.05769 12.62355 37967 ft 428 kts 336°
2026-05-05 16:29 44.10471 12.60220 37961 ft 428 kts 336°
2026-05-05 16:30 44.16139 12.57640 37964 ft 428 kts 336°
2026-05-05 16:30 44.21807 12.55055 37967 ft 429 kts 336°
2026-05-05 16:31 44.27495 12.52456 37970 ft 430 kts 336°
2026-05-05 16:31 44.33192 12.49848 37969 ft 431 kts 336°
2026-05-05 16:32 44.38859 12.47248 37971 ft 431 kts 336°
2026-05-05 16:32 44.44563 12.44626 37971 ft 432 kts 336°
2026-05-05 16:33 44.50279 12.41993 37977 ft 432 kts 336°
2026-05-05 16:33 44.55995 12.39355 37980 ft 433 kts 336°
2026-05-05 16:34 44.61717 12.36708 37983 ft 433 kts 337°
2026-05-05 16:34 44.67440 12.34056 37981 ft 434 kts 337°
2026-05-05 16:35 44.73178 12.31391 37983 ft 434 kts 337°
2026-05-05 16:35 44.78914 12.28720 37987 ft 435 kts 337°
2026-05-05 16:36 44.84663 12.26039 37996 ft 435 kts 337°
2026-05-05 16:36 44.90417 12.23349 37984 ft 436 kts 337°
2026-05-05 16:37 44.96173 12.20653 37992 ft 436 kts 337°
2026-05-05 16:37 45.01940 12.17946 37992 ft 436 kts 337°
2026-05-05 16:38 45.07704 12.15235 37994 ft 437 kts 337°
2026-05-05 16:38 45.13435 12.12533 38001 ft 437 kts 337°
2026-05-05 16:39 45.19209 12.09806 38000 ft 437 kts 337°
2026-05-05 16:39 45.24988 12.07070 37999 ft 438 kts 337°
2026-05-05 16:40 45.30775 12.04324 38004 ft 438 kts 337°
2026-05-05 16:40 45.36559 12.01574 38003 ft 438 kts 337°
2026-05-05 16:41 45.42342 11.98819 38005 ft 438 kts 337°
2026-05-05 16:41 45.48127 11.96057 38019 ft 438 kts 337°
2026-05-05 16:42 45.53911 11.93288 38024 ft 438 kts 337°
2026-05-05 16:42 45.59702 11.90511 38023 ft 439 kts 337°
2026-05-05 16:43 45.65496 11.87726 38027 ft 440 kts 337°
2026-05-05 16:43 45.71295 11.84933 38014 ft 439 kts 337°
2026-05-05 16:44 45.77084 11.82138 38031 ft 439 kts 337°
2026-05-05 16:44 45.82875 11.79337 38020 ft 439 kts 337°
2026-05-05 16:45 45.88628 11.76547 38032 ft 439 kts 337°
2026-05-05 16:45 45.94424 11.73732 38020 ft 440 kts 337°
2026-05-05 16:46 46.00225 11.70910 38017 ft 440 kts 337°
2026-05-05 16:46 46.06019 11.68085 38010 ft 439 kts 338°
2026-05-05 16:47 46.11807 11.65258 38004 ft 439 kts 338°
2026-05-05 16:47 46.17592 11.62435 37982 ft 440 kts 339°
2026-05-05 16:48 46.23577 11.60464 37966 ft 441 kts 345°
2026-05-05 16:48 46.29589 11.58656 37959 ft 442 kts 345°
2026-05-05 16:49 46.35617 11.56829 37959 ft 443 kts 345°
2026-05-05 16:49 46.41656 11.54995 37967 ft 444 kts 345°
2026-05-05 16:50 46.47703 11.53152 37967 ft 444 kts 345°
2026-05-05 16:50 46.53766 11.51300 37966 ft 445 kts 345°
2026-05-05 16:51 46.59836 11.49443 37975 ft 445 kts 345°
2026-05-05 16:51 46.65873 11.47591 37957 ft 446 kts 345°
2026-05-05 16:52 46.71947 11.45725 37956 ft 446 kts 345°
2026-05-05 16:52 46.78024 11.43853 37945 ft 447 kts 345°
2026-05-05 16:53 46.84106 11.41973 37935 ft 447 kts 345°
2026-05-05 16:53 46.90194 11.40090 37919 ft 447 kts 345°
2026-05-05 16:54 46.96274 11.38266 37884 ft 446 kts 348°
2026-05-05 16:54 47.02496 11.37651 37879 ft 452 kts 357°
2026-05-05 16:55 47.08790 11.37589 37861 ft 452 kts 356°
2026-05-05 16:55 47.15090 11.37503 37858 ft 453 kts 356°
2026-05-05 16:56 47.21378 11.37438 37856 ft 452 kts 356°
2026-05-05 16:56 47.27681 11.37377 37864 ft 454 kts 356°
2026-05-05 16:57 47.33964 11.37316 37861 ft 454 kts 356°
2026-05-05 16:57 47.40272 11.37254 37847 ft 453 kts 357°
2026-05-05 16:58 47.46571 11.37193 37839 ft 453 kts 357°
2026-05-05 16:58 47.52869 11.37131 37831 ft 453 kts 356°
2026-05-05 16:59 47.59183 11.37068 37826 ft 454 kts 357°
2026-05-05 16:59 47.65495 11.37006 37819 ft 453 kts 357°
2026-05-05 17:00 47.71807 11.36943 37818 ft 452 kts 357°
2026-05-05 17:00 47.78102 11.36881 37819 ft 452 kts 357°
2026-05-05 17:01 47.84347 11.36817 37816 ft 451 kts 356°
2026-05-05 17:01 47.90587 11.36046 37815 ft 449 kts 351°
2026-05-05 17:02 47.96804 11.35137 37828 ft 449 kts 351°
2026-05-05 17:02 48.03055 11.34219 37831 ft 452 kts 351°
2026-05-05 17:03 48.09323 11.33290 37830 ft 452 kts 351°
2026-05-05 17:03 48.15545 11.32363 37829 ft 452 kts 351°
2026-05-05 17:04 48.21802 11.31428 37828 ft 452 kts 351°
2026-05-05 17:04 48.28062 11.30491 37824 ft 452 kts 351°
2026-05-05 17:05 48.34330 11.29549 37824 ft 453 kts 351°
2026-05-05 17:05 48.40611 11.28604 37826 ft 453 kts 351°
2026-05-05 17:06 48.46891 11.27657 37816 ft 453 kts 351°
2026-05-05 17:06 48.50022 11.27184 37587 ft 451 kts 351°
2026-05-05 17:06 48.53134 11.26714 37044 ft 450 kts 351°
2026-05-05 17:07 48.56260 11.26239 36321 ft 451 kts 351°
2026-05-05 17:07 48.59394 11.25762 35551 ft 454 kts 351°
2026-05-05 17:07 48.62554 11.25281 34784 ft 456 kts 352°
2026-05-05 17:07 48.65686 11.24804 34042 ft 459 kts 352°
2026-05-05 17:08 48.68871 11.24319 33239 ft 460 kts 352°
2026-05-05 17:08 48.72057 11.23834 32512 ft 460 kts 352°
2026-05-05 17:08 48.75241 11.23349 32067 ft 458 kts 352°
2026-05-05 17:08 48.78439 11.22859 31762 ft 465 kts 352°
2026-05-05 17:09 48.81662 11.22270 31449 ft 466 kts 346°
2026-05-05 17:09 48.84741 11.20867 31156 ft 460 kts 334°
2026-05-05 17:09 48.87535 11.18537 30858 ft 455 kts 321°
2026-05-05 17:09 48.89939 11.15436 30566 ft 452 kts 312°
2026-05-05 17:10 48.92130 11.12031 30277 ft 450 kts 311°
2026-05-05 17:10 48.94310 11.08623 29986 ft 448 kts 312°
2026-05-05 17:10 48.96491 11.05348 29682 ft 445 kts 313°
2026-05-05 17:10 48.98728 11.02105 29350 ft 443 kts 314°
2026-05-05 17:11 49.01006 10.98869 29016 ft 441 kts 314°
2026-05-05 17:11 49.03227 10.95743 28707 ft 439 kts 314°
2026-05-05 17:11 49.05473 10.92588 28376 ft 438 kts 314°
2026-05-05 17:11 49.07704 10.89450 28060 ft 436 kts 314°
2026-05-05 17:12 49.09929 10.86316 27740 ft 433 kts 314°
2026-05-05 17:12 49.12138 10.83195 27438 ft 432 kts 314°
2026-05-05 17:12 49.14336 10.80084 27128 ft 430 kts 314°
2026-05-05 17:12 49.16522 10.76986 26764 ft 427 kts 314°
2026-05-05 17:13 49.18705 10.73888 25947 ft 431 kts 314°
2026-05-05 17:13 49.20910 10.70711 24946 ft 438 kts 312°
2026-05-05 17:13 49.23033 10.67404 24363 ft 433 kts 311°
2026-05-05 17:13 49.25088 10.64113 24073 ft 421 kts 310°
2026-05-05 17:14 49.27079 10.60922 23882 ft 408 kts 311°
2026-05-05 17:14 49.29036 10.57800 23862 ft 409 kts 311°
2026-05-05 17:14 49.31025 10.54633 23858 ft 414 kts 311°
2026-05-05 17:14 49.33021 10.51467 23852 ft 413 kts 311°
2026-05-05 17:15 49.34343 10.49374 23849 ft 413 kts 311°
2026-05-05 17:15 49.36269 10.46116 23791 ft 412 kts 306°
2026-05-05 17:15 49.37947 10.42560 23562 ft 410 kts 302°
2026-05-05 17:15 49.40098 10.37824 23235 ft 407 kts 302°
2026-05-05 17:16 49.41197 10.35419 23039 ft 406 kts 302°
2026-05-05 17:16 49.42812 10.31884 22746 ft 403 kts 302°
2026-05-05 17:16 49.44414 10.28371 22311 ft 400 kts 302°
2026-05-05 17:16 49.46002 10.24883 21758 ft 397 kts 302°
2026-05-05 17:17 49.47581 10.21408 21185 ft 393 kts 302°
2026-05-05 17:17 49.49114 10.18028 20623 ft 390 kts 302°
2026-05-05 17:17 49.50661 10.14610 20069 ft 387 kts 302°
2026-05-05 17:17 49.52257 10.11292 19520 ft 386 kts 308°
2026-05-05 17:18 49.54206 10.08458 19052 ft 385 kts 320°
2026-05-05 17:18 49.56474 10.06263 18879 ft 387 kts 330°
2026-05-05 17:18 49.58916 10.04436 18826 ft 391 kts 331°
2026-05-05 17:18 49.61355 10.02592 18823 ft 391 kts 331°
2026-05-05 17:19 49.63798 10.00738 18823 ft 390 kts 331°
2026-05-05 17:19 49.66234 9.98888 18825 ft 390 kts 331°
2026-05-05 17:19 49.68672 9.97037 18816 ft 390 kts 331°
2026-05-05 17:19 49.71109 9.95187 18820 ft 391 kts 331°
2026-05-05 17:20 49.73487 9.93174 18813 ft 389 kts 327°
2026-05-05 17:20 49.75840 9.91091 18817 ft 389 kts 327°
2026-05-05 17:20 49.78200 9.89013 18814 ft 390 kts 327°
2026-05-05 17:20 49.80522 9.86968 18811 ft 389 kts 327°
2026-05-05 17:21 49.82871 9.84895 18814 ft 390 kts 327°
2026-05-05 17:21 49.85258 9.82785 18805 ft 390 kts 328°
2026-05-05 17:21 49.87614 9.80699 18803 ft 390 kts 327°
2026-05-05 17:22 49.91340 9.74977 18630 ft 379 kts 294°
2026-05-05 17:22 49.92168 9.71154 18187 ft 373 kts 276°
2026-05-05 17:22 49.92480 9.67179 17441 ft 371 kts 274°
2026-05-05 17:22 49.92754 9.63210 16654 ft 368 kts 274°
2026-05-05 17:23 49.93027 9.59275 15772 ft 365 kts 274°
2026-05-05 17:23 49.93299 9.55358 14798 ft 365 kts 274°
2026-05-05 17:23 49.93572 9.51436 13830 ft 365 kts 274°
2026-05-05 17:23 49.93843 9.47535 12816 ft 364 kts 274°
2026-05-05 17:24 49.94113 9.43634 11784 ft 362 kts 274°
2026-05-05 17:24 49.94593 9.39804 10795 ft 364 kts 287°
2026-05-05 17:24 49.95226 9.36036 9828 ft 358 kts 272°
2026-05-05 17:24 49.95158 9.32222 9194 ft 347 kts 264°
2026-05-05 17:25 49.94994 9.28563 9407 ft 331 kts 263°
2026-05-05 17:25 49.94733 9.26293 9775 ft 317 kts 249°
2026-05-05 17:25 49.93195 9.22708 10537 ft 286 kts 218°
2026-05-05 17:25 49.91603 9.20990 10738 ft 277 kts 220°
2026-05-05 17:26 49.90447 9.18592 10813 ft 282 kts 245°
2026-05-05 17:26 49.90085 9.15638 10819 ft 277 kts 271°
2026-05-05 17:26 49.90486 9.12826 10819 ft 265 kts 283°
2026-05-05 17:26 49.91022 9.10142 10821 ft 252 kts 283°
2026-05-05 17:27 49.91544 9.07546 10820 ft 257 kts 283°
2026-05-05 17:27 49.92074 9.04898 10823 ft 257 kts 283°
2026-05-05 17:27 49.92603 9.02256 10827 ft 256 kts 283°
2026-05-05 17:27 49.93132 8.99615 10823 ft 256 kts 283°
2026-05-05 17:28 49.93735 8.97012 10820 ft 258 kts 297°
2026-05-05 17:28 49.94972 8.94958 10822 ft 267 kts 326°
2026-05-05 17:28 49.96720 8.93909 10825 ft 273 kts 343°
2026-05-05 17:28 49.98557 8.93188 10823 ft 272 kts 343°
2026-05-05 17:29 50.00396 8.92476 10823 ft 272 kts 343°
2026-05-05 17:29 50.02240 8.91758 10823 ft 272 kts 343°
2026-05-05 17:29 50.04081 8.91036 10828 ft 273 kts 343°
2026-05-05 17:29 50.05922 8.90315 10824 ft 272 kts 343°
2026-05-05 17:30 50.07759 8.89595 10825 ft 272 kts 343°
2026-05-05 17:30 50.09597 8.88869 10824 ft 273 kts 343°
2026-05-05 17:30 50.11413 8.88148 10810 ft 272 kts 343°
2026-05-05 17:30 50.13241 8.87420 10610 ft 270 kts 343°
2026-05-05 17:31 50.15060 8.86698 10299 ft 270 kts 343°
2026-05-05 17:31 50.16880 8.85973 9969 ft 270 kts 343°
2026-05-05 17:31 50.18716 8.85374 9640 ft 270 kts 357°
2026-05-05 17:31 50.20540 8.85914 9259 ft 269 kts 26°
2026-05-05 17:32 50.21975 8.87698 8928 ft 262 kts 57°
2026-05-05 17:32 50.22737 8.90233 8839 ft 261 kts 73°
2026-05-05 17:32 50.23340 8.92922 8804 ft 260 kts 73°
2026-05-05 17:32 50.23933 8.95573 8618 ft 258 kts 73°
2026-05-05 17:33 50.24346 8.98263 8276 ft 253 kts 94°
2026-05-05 17:33 50.23943 9.00859 7921 ft 245 kts 123°
2026-05-05 17:33 50.22784 9.02724 7539 ft 239 kts 154°
2026-05-05 17:33 50.21246 9.03642 7205 ft 236 kts 167°
2026-05-05 17:34 50.19634 9.03662 6861 ft 233 kts 197°
2026-05-05 17:34 50.18273 9.02391 6522 ft 234 kts 223°
2026-05-05 17:34 50.17116 9.00609 6220 ft 233 kts 226°
2026-05-05 17:34 50.15972 8.98821 5887 ft 233 kts 224°
2026-05-05 17:35 50.14813 8.97060 5569 ft 232 kts 224°
2026-05-05 17:35 50.13670 8.95287 5272 ft 231 kts 227°
2026-05-05 17:35 50.12749 8.93250 4939 ft 231 kts 246°
2026-05-05 17:35 50.12151 8.90957 4781 ft 224 kts 248°
2026-05-05 17:36 50.11510 8.88779 4534 ft 220 kts 241°
2026-05-05 17:36 50.10808 8.86663 4168 ft 220 kts 244°
2026-05-05 17:36 50.10199 8.84478 3830 ft 219 kts 248°
2026-05-05 17:36 50.09651 8.82265 3523 ft 217 kts 249°
2026-05-05 17:37 50.09131 8.80096 3224 ft 210 kts 250°
2026-05-05 17:37 50.08629 8.77995 2947 ft 203 kts 250°
2026-05-05 17:37 50.08145 8.75967 2683 ft 197 kts 250°
2026-05-05 17:37 50.07676 8.74004 2423 ft 191 kts 250°
2026-05-05 17:38 50.07220 8.72098 2166 ft 185 kts 250°
2026-05-05 17:38 50.06789 8.70293 1961 ft 175 kts 250°
2026-05-05 17:38 50.06369 8.68533 1711 ft 167 kts 250°
2026-05-05 17:38 50.05959 8.66819 1493 ft 172 kts 250°
2026-05-05 17:39 50.05553 8.65122 1271 ft 167 kts 250°
2026-05-05 17:39 50.05149 8.63426 1053 ft 170 kts 250°
2026-05-05 17:39 50.04736 8.61701 826 ft 169 kts 249°
2026-05-05 17:39 50.04327 8.59994 573 ft 168 kts 250°
2026-05-05 17:40 50.03926 8.58303 389 ft 167 kts 249°
2026-05-05 17:40 50.03554 8.56754 349 ft 123 kts 250°
2026-05-05 17:40 50.03436 8.56064 356 ft 33 kts 275°
2026-05-05 17:40 50.03472 8.55752 344 ft 21 kts 275°
2026-05-05 17:41 50.03492 8.55546 345 ft 17 kts 274°
2026-05-05 17:41 50.03465 8.55377 347 ft 15 kts 247°
2026-05-05 17:41 50.03433 8.55227 353 ft 14 kts 250°
2026-05-05 17:41 50.03400 8.55087 348 ft 14 kts 249°
2026-05-05 17:42 50.03362 8.54924 346 ft 21 kts 249°
2026-05-05 17:42 50.03301 8.54679 334 ft 23 kts 249°
2026-05-05 17:42 50.03287 8.54520 336 ft 11 kts 298°
2026-05-05 17:42 50.03347 8.54458 336 ft 10 kts 335°
2026-05-05 17:43 50.03409 8.54423 337 ft 11 kts 341°
2026-05-05 17:43 50.03519 8.54361 349 ft 20 kts 339°
2026-05-05 17:43 50.03650 8.54335 344 ft 19 kts 41°
2026-05-05 17:43 50.03701 8.54494 348 ft 15 kts 70°
2026-05-05 17:44 50.03739 8.54652 352 ft 16 kts 69°
2026-05-05 17:44 50.03778 8.54813 349 ft 16 kts 69°
2026-05-05 17:44 50.03814 8.54977 356 ft 16 kts 72°
2026-05-05 17:44 50.03866 8.55181 355 ft 27 kts 69°
2026-05-05 17:45 50.03933 8.55459 357 ft 27 kts 69°
2026-05-05 17:45 50.03997 8.55730 358 ft 26 kts 69°
2026-05-05 17:45 50.04055 8.55980 355 ft 23 kts 69°
2026-05-05 17:45 50.04111 8.56206 360 ft 21 kts 69°
2026-05-05 17:46 50.04159 8.56412 358 ft 19 kts 70°
2026-05-05 17:46 50.04203 8.56590 361 ft 16 kts 71°
2026-05-05 17:46 50.04236 8.56737 359 ft 12 kts 69°
2026-05-05 17:46 50.04289 8.56807 365 ft 9 kts 15°
2026-05-05 17:47 50.04348 8.56829 360 ft 8 kts 12°
2026-05-05 17:47 50.04411 8.56848 361 ft 12 kts
2026-05-05 17:47 50.04514 8.56874 359 ft 16 kts 12°
2026-05-05 17:47 50.04609 8.56912 358 ft 8 kts
2026-05-05 17:48 50.04637 8.56872 356 ft 6 kts 296°
2026-05-05 17:48 50.04654 8.56812 360 ft 0 kts 295°